Location: Newark
(48.6676°N, 6.1917°E)
Time: 20:32:30
(UTC+00:00)

N. Korean satellite - Pass Details

Date: 11 December 2019
Orbit: 454 x 507 km, 97.2° (Epoch: 28 January)

Event Time Altitude Azimuth Distance (km) Brightness Sun altitude
Rises 04:34:12 0° 27° (NNE) 2,551 10.5 -25.8°
Reaches altitude 10° 04:36:51 10° 48° (NE) 1,654 9.8 -25.4°
Maximum altitude 04:39:16 17° 91° (E) 1,259 9.5 -25.0°
Drops below altitude 10° 04:41:38 10° 134° (SE) 1,624 9.9 -24.6°
Sets 04:44:11 0° 156° (SSE) 2,483 10.6 -24.2°
